Location: Casper
(42.8670°N, 106.3130°W)
Time: 02:25:17
(UTC-07:00)

Daily predictions for brighter satellites

Satellite Brightness Start Highest point End
(mag) Time Altitude Azimuth Time Altitude Azimuth Time Altitude Azimuth
Lacrosse 5 rocket 4.4 03:56:57 14° ESE 03:56:57 14° ESE 03:57:42 10° ESE
USA 267 4.2 03:48:48 10° NE 03:52:47 41° NE 03:52:47 41° NE
SJ 16-02 3.8 04:17:53 17° SE 04:17:53 17° SE 04:19:02 10° SE
Cosmos 1697 Rocket 3.6 04:17:46 46° ESE 04:17:46 46° ESE 04:22:03 10° SE
Cosmos 2082 Rocket 3.1 04:18:37 43° ENE 04:18:37 43° ENE 04:22:40 10° NNE
SeaSat 1 4.0 04:22:12 10° NNE 04:24:34 28° NE 04:24:34 28° NE
Cosmos 1833 Rocket 3.5 04:29:21 45° NE 04:29:21 45° NE 04:33:13 10° NNE
USA 234 3.3 04:23:54 10° ESE 04:30:25 71° NE 04:30:59 67° N
CZ-4B R/B 4.5 04:35:21 10° NNE 04:38:05 30° NNE 04:38:05 30° NNE
Cosmos 2279 Rocket 4.1 04:39:25 34° N 04:42:19 74° E 04:48:30 10° SSE
COSMO-SKYMED 1 3.9 04:41:34 10° SE 04:45:34 37° ENE 04:46:29 33° NE
Cosmos 1980 Rocket 2.4 04:54:16 44° N 04:56:01 67° ENE 05:01:39 10° SE
CZ-2C R/B 4.5 04:52:20 10° NE 04:56:26 26° E 05:00:23 10° SSE
Cosmos 1536 4.2 04:53:15 10° SSE 04:57:02 38° E 05:00:48 10° NNE
Meteor 1-13 Rocket 4.3 05:01:12 26° N 05:04:43 87° E 05:10:40 10° S
Meteor 1-11 Rocket 3.9 05:03:46 10° S 05:09:42 78° E 05:15:35 10° NNE
Meteor 2-4 Rocket 3.7 05:08:43 20° N 05:12:32 79° ENE 05:18:04 10° SSE
Meteor 2-20 4.3 05:16:48 10° S 05:22:54 85° W 05:29:02 10° N
RESURS DK-1 2.2 05:27:35 62° NW 05:28:14 82° WSW 05:32:22 10° SSE
SL-16 R/B 3.1 05:27:02 12° NNW 05:32:06 46° ENE 05:37:31 10° SE
Cosmos 2360 4.1 05:29:39 31° NW 05:32:25 70° WSW 05:38:05 10° SSE
Meteor 1-19 Rocket 4.4 05:29:39 29° NW 05:32:25 51° W 05:38:05 10° SSW
Lacrosse 5 rocket 2.4 05:32:41 32° SW 05:32:41 32° SW 05:36:30 10° S
SKYMED 2 3.5 05:29:15 10° S 05:33:33 66° WSW 05:35:07 37° NNW
Nadezhda 4 Rocket 3.9 05:29:03 10° S 05:35:13 86° W 05:41:23 10° N
EO 1 Del DPAF 3.1 05:34:06 10° S 05:37:53 63° WSW 05:38:41 49° NW
USA 267 3.9 05:32:05 10° NE 05:37:53 36° NNW 05:40:08 28° WNW
Cosmos 2322 Rocket 3.0 05:34:30 11° NNW 05:39:48 51° ENE 05:45:19 10° SE
PAYLOAD A 4.0 05:40:30 10° N 05:45:57 75° WNW 05:51:18 10° SSW
NOAA 6 4.0 05:42:55 10° N 05:47:56 55° WNW 05:52:55 10° SSW
Timation 2 Rocket 4.1 05:43:10 10° SSW 05:50:02 83° WNW 05:56:58 10° NNE
Meteor 1-5 Rocket 4.0 05:46:02 10° SSW 05:51:30 72° W 05:56:52 10° N
SJ 16-02 3.3 05:54:57 14° SW 05:54:57 14° SW 05:56:01 10° SW
Cosmos 1437 Rocket 2.8 05:49:12 10° SSW 05:53:04 52° WNW 05:56:55 10° N
Okean 2 3.7 05:49:17 10° N 05:53:23 66° E 05:57:26 10° SSE
Cosmos 2151 Rocket 4.1 05:53:42 10° SW 05:57:42 34° WNW 06:01:44 10° N
Cosmos 44 Rocket 4.1 05:58:09 26° NW 05:58:42 26° NW 06:02:43 10° NNE
Cosmos 1697 Rocket 3.8 05:59:35 22° W 06:00:05 22° W 06:04:15 10° SSW
Cosmos 2082 Rocket 3.2 06:00:34 23° WNW 06:01:32 24° NW 06:06:08 10° N
IDEFIX/ARIANE 42P 2.6 05:57:02 10° N 06:02:07 56° WNW 06:07:12 10° SSW
SeaSat 1 3.7 06:00:38 10° N 06:04:13 20° NW 06:04:23 20° NW
Ariane Rocket 4.3 06:00:34 10° NNE 06:05:23 43° E 06:10:11 10° S
Cosmos 1184 Rocket 3.7 06:03:08 10° N 06:06:24 51° ENE 06:09:38 10° SSE
Cosmos 1300 Rocket 3.9 06:05:37 10° SSW 06:09:39 40° WNW 06:13:46 10° N
CZ-4C R/B 2.1 06:04:47 10° SW 06:09:59 75° NW 06:16:00 10° NE
Cosmos 1500 3.1 06:06:37 10° S 06:10:28 86° W 06:14:20 10° N
Cosmos 1833 Rocket 3.9 06:11:08 19° WNW 06:12:08 20° NW 06:16:11 10° N
Cosmos 1975 3.7 06:08:19 10° S 06:12:11 52° E 06:16:05 10° NNE
Okean-O 3.4 06:09:23 10° N 06:13:15 29° WNW 06:17:05 10° SW
Cosmos 1092 Rocket 3.9 06:07:20 10° SSW 06:13:23 63° W 06:19:30 10° N
USA 234 4.0 06:07:49 10° SSE 06:13:42 35° SW 06:18:20 16° WNW
Meteor 1-23 Rocket 4.5 06:09:39 10° NNW 06:14:57 46° W 06:20:12 10° SSW
SAR-Lupe-3 4.5 06:16:22 10° SSE 06:19:57 84° WSW 06:23:34 10° NNW
COSMO-SKYMED 1 3.9 06:18:37 10° SW 06:21:50 20° W 06:23:41 16° WNW
MSX 3.8 06:16:21 10° N 06:22:03 63° WNW 06:27:41 10° SSW
Cosmos 1025 Rocket 3.0 06:18:17 10° NNW 06:22:29 57° W 06:26:40 10° S
Cosmos 773 Rocket 4.0 06:17:36 10° SW 06:22:37 54° WNW 06:27:42 10° NNE
deb Kosmos-1763 4.0 06:19:06 10° SSW 06:22:50 68° WNW 06:26:34 10° NNE
Cosmos 1680 Rocket 4.0 06:19:41 10° S 06:24:49 66° ESE 06:30:00 10° NNE
SMAP 3.4 06:21:15 10° NNE 06:25:55 71° ESE 06:30:33 10° S
Meteor 1-4 Rocket 2.8 06:22:17 10° SSW 06:25:57 48° WNW 06:29:40 10° N
Cosmos 2195 Rocket 4.5 06:21:03 10° SSW 06:27:21 70° W 06:33:38 10° N
Cosmos 2026 Rocket 4.0 06:24:33 10° SSW 06:30:47 76° W 06:37:09 10° N
Cosmos 1066 Rocket 4.1 06:26:27 10° N 06:31:50 86° W 06:37:14 10° S
AQUARIUS 4.3 06:27:30 10° NNE 06:32:02 82° ESE 06:36:32 10° S
Cosmos 1536 4.3 06:31:03 10° WSW 06:33:39 16° WNW 06:36:15 10° NNW
CZ-2C R/B 2.9 06:30:18 10° N 06:34:44 35° WNW 06:39:01 10° SW
Thor Agena Rocket 3.7 06:30:07 10° S 06:35:01 53° W 06:40:00 10° NNW
Cosmos 1553 Rocket 4.2 06:28:49 10° N 06:35:08 77° E 06:41:17 10° SSE
Cosmos 2360 Rocket 2.7 06:32:34 10° NNW 06:38:14 63° ENE 06:43:50 10° SE
Cosmos 1980 Rocket 3.6 06:36:06 11° WNW 06:39:24 18° W 06:43:06 10° SW
Okean 1 Rocket 3.8 06:35:52 10° SW 06:39:46 31° WNW 06:43:43 10° NNW
Cosmos 1666 3.2 06:39:15 10° S 06:43:04 66° E 06:46:52 10° NNE
Cosmos 2219 Rocket 4.1 06:44:45 10° N 06:49:21 25° NE 06:53:56 10° ESE
Cosmos 923 Rocket 4.2 06:50:11 10° SW 06:55:18 52° WNW 07:00:25 10° N
YAOGAN 1 2.7 06:55:22 10° NNE 06:59:44 86° ESE 07:04:03 10° SSW
Cosmos 1892 Rocket 3.7 06:55:39 10° NNW 06:59:59 58° W 07:04:15 10° S
Cosmos 2237 Rocket 4.4 06:57:23 10° N 07:01:09 18° NE 07:04:53 10° E
IRAS Rocket 4.3 06:55:59 10° N 07:01:27 63° WNW 07:06:55 10° SSW
